Powrót do katalogu

STARLINK-32605

AktywnyŁącznośćVLEO
NORAD 61921·PAYLOAD·🇺🇸 United States

Wystrzelony Nov 11, 2024 z Cape Canaveral Space Force Station

Loading…

Następne Przeloty (najbliższe 24 godziny)

TLE

ŚwieżeSource: CelesTrak SupGP

Epoka: Sep 14, 2026, 21:17 UTC

1 61921C 24207K   26257.88729167 -.00007714  00000+0 -27946-3 0  2572
2 61921  43.0002 293.0721 0001524 271.7072 299.2401 15.27573581    14

Śledź STARLINK-32605 w czasie rzeczywistym z AllMySat

Download on the App Store